This is the latest recevied weather packets stored in our database for station/object VE9LJW. If no packets are shown the sender has not sent any weather packets the latest 10 day(s).
| Time | Temp. | Humidity | Pressure | Rain* | Wind** | Luminosity | Snow |
|---|---|---|---|---|---|---|---|
| 1777832973 | 10.56° C | 99% | 999.6 hPa | 6.6 mm | - | 40 W/m² | - |
| 1777832672 | 10.56° C | 99% | 999.5 hPa | 5.33 mm | - | 55 W/m² | - |
| 1777832369 | 10.56° C | 99% | 999.6 hPa | 6.1 mm | - | 56 W/m² | - |
| 1777832066 | 10.56° C | 99% | 999.8 hPa | 4.32 mm | - | 48 W/m² | - |
| 1777831762 | 10.56° C | 99% | 999.7 hPa | 4.32 mm | - | 53 W/m² | - |
| 1777831461 | 10.56° C | 99% | 999.8 hPa | 3.56 mm | - | 39 W/m² | - |
| 1777831157 | 10.56° C | 99% | 1000.1 hPa | 4.32 mm | - | 49 W/m² | - |
| 1777830855 | 10.56° C | 99% | 1000.4 hPa | 4.83 mm | - | 48 W/m² | - |
| 1777830550 | 10.56° C | 99% | 1000.3 hPa | 4.32 mm | - | 24 W/m² | - |
| 1777830249 | 10.56° C | 99% | 1000.4 hPa | 3.56 mm | - | 26 W/m² | - |
| 1777829943 | 10.56° C | 99% | 1000.5 hPa | 3.05 mm | - | 22 W/m² | - |
| 1777829640 | 10.56° C | 99% | 1000.4 hPa | 1.78 mm | - | 23 W/m² | - |
| 1777829336 | 10.56° C | 99% | 1000.4 hPa | 1.27 mm | - | 38 W/m² | - |
| 1777829034 | 10.56° C | 99% | 1000.4 hPa | 1.27 mm | - | 53 W/m² | - |
| 1777828730 | 10.56° C | 99% | 1000.4 hPa | 1.27 mm | - | 57 W/m² | - |
| 1777828427 | 10.56° C | 99% | 1000.3 hPa | 1.27 mm | - | 69 W/m² | - |
| 1777828124 | 10.56° C | 99% | 1000.5 hPa | 1.27 mm | - | 69 W/m² | - |
| 1777827820 | 10.56° C | 99% | 1000.5 hPa | 0.51 mm | - | 62 W/m² | - |
| 1777827517 | 10.56° C | 99% | 1000.6 hPa | 0.51 mm | - | 51 W/m² | - |
| 1777827215 | 10.56° C | 99% | 1000.4 hPa | 1.78 mm | - | 72 W/m² | - |
| 1777826911 | 10.56° C | 99% | 1000.4 hPa | 1.78 mm | - | 55 W/m² | - |
| 1777826609 | 10.56° C | 99% | 1000.7 hPa | 1.78 mm | - | 43 W/m² | - |
| 1777826305 | 10.56° C | 99% | 1000.8 hPa | 1.27 mm | - | 59 W/m² | - |
| 1777826003 | 10.56° C | 99% | 1000.8 hPa | 1.27 mm | - | 84 W/m² | - |
| 1777825699 | 10.56° C | 99% | 1001.1 hPa | 1.27 mm | - | 110 W/m² | - |
* Rain latest hour (hover to see other rain measurements)
** Current wind speed in m/s (hover to see current wind gust speed)